Dewpoint
-16 -17 -7 -2 -4 -3 -2 -4 -8 -8 -8 -11 -9 -8 -4 2 4 7 9 9 3 -5 -4 -5 -6 -7 -7 -7 -7 -3 3 8 11 12 12 11 11 9 7 7 9 10 11 11 12 11 11 11 12
-18 -11 -3 -0 -3 -3 -4 -5 -4 -6 -8 -10 -7 -8 -1 6 7 8 10 4 -4 -4 -4 -5 -6 -7 -6 -6 -5 -3 1 7 10 12 12 11 12 10 9 9 10 11 11 11 11 11 11 10 10
-18 -6 -1 0 -3 -3 -5 -7 -7 -8 -10 -12 -8 -9 -3 5 7 7 6 -2 -4 -3 -4 -5 -6 -7 -6 -5 -5 -4 1 6 9 12 12 12 12 11 10 10 11 10 11 11 11 10 9 9 9
-15 -4 -0 -0 -2 -6 -7 -11 -11 -11 -11 -12 -10 -8 0 3 4 5 4 -6 -4 -4 -5 -4 -5 -7 -6 -5 -5 -3 1 6 9 12 12 12 12 12 11 11 10 10 10 10 9 8 7 7 10
-8 -1 1 -1 -2 -6 -8 -10 -10 -10 -12 -13 -13 -10 2 5 4 3 -6 -8 -4 -6 -4 -4 -5 -5 -5 -5 -6 -2 1 6 10 12 12 12 12 12 12 11 11 11 11 9 8 6 5 6 8
-4 -3 -1 1 -3 -6 -8 -9 -10 -11 -12 -12 -10 -8 1 5 5 2 -3 -7 -5 -6 -4 -3 -4 -5 -5 -6 -7 -4 0 6 10 12 12 12 12 12 12 12 11 11 10 8 8 7 5 5 8
-0 -1 -1 -1 -3 -5 -6 -8 -9 -9 -9 -10 -11 -8 1 6 5 4 -0 -3 -4 -4 -4 -3 -4 -5 -4 -5 -7 -5 -2 5 9 10 10 10 12 12 12 12 12 11 10 9 8 7 7 7 8
0 -0 2 -1 -2 -3 -6 -7 -8 -8 -8 -8 -10 -8 7 7 7 4 3 2 1 -1 -2 -3 -4 -5 -4 -3 -6 -5 -1 4 7 8 8 10 11 12 12 12 12 12 11 9 9 8 7 8 8
-3 0 2 2 2 0 -3 -3 -4 -5 -6 -8 -12 -10 -1 7 8 8 7 7 5 2 1 -1 -3 -3 -3 -2 -4 -5 -2 3 7 8 8 10 11 12 12 12 12 12 11 10 9 8 8 7 8
-2 -0 1 -1 -1 -1 -2 -3 -3 -4 -5 -9 -9 -5 -1 6 8 8 8 6 4 2 3 2 -1 -2 -2 -2 -3 -5 -3 2 6 8 9 9 11 12 12 12 12 12 11 11 10 8 7 8 8
-8 0 -1 -1 -1 -2 -2 -3 -2 -2 -2 -6 -9 3 5 7 8 8 8 6 3 -0 3 4 3 -1 -1 -1 -2 -3 -2 1 4 8 9 9 11 12 12 12 12 12 11 11 10 9 8 8 8
-11 -11 -7 -5 -3 -2 -3 -3 -4 -4 -3 -4 -4 1 5 8 8 8 8 8 7 7 6 4 4 2 1 1 0 -2 -2 -0 2 6 9 9 10 11 12 12 12 12 11 11 10 9 8 8 8
-8 -10 -12 -12 -12 -9 -5 -3 -3 -3 -4 -4 -4 -5 8 9 9 9 8 9 9 8 7 6 3 1 2 2 3 2 0 -0 1 4 8 9 9 10 10 11 12 11 11 11 10 9 9 9 8
-8 -8 -6 -5 -7 -10 -10 -8 -6 -5 -3 -4 -4 -5 0 9 9 10 10 10 10 10 10 9 9 3 0 0 3 5 3 2 2 2 6 9 9 9 10 11 11 12 11 11 11 10 9 9 9
-13 -10 -11 -11 -9 -6 -8 -7 -7 -7 -4 -4 -4 -5 -7 -2 -0 5 7 9 7 9 9 10 9 7 3 1 3 5 4 5 3 2 5 9 10 10 10 10 11 11 11 11 11 11 10 9 10
-11 -11 -10 -11 -9 -9 -7 -3 -7 -8 -7 -5 -5 -5 -5 -7 -6 -3 -4 -3 2 1 4 8 9 9 9 5 2 4 5 6 4 5 2 6 9 11 11 11 11 11 11 11 11 11 11 11 10
-10 -9 -10 -11 -10 -9 -7 -4 -6 -7 -7 -5 -5 -5 -5 -5 -6 -4 -3 -5 -7 -4 -3 -3 6 10 9 8 6 4 6 7 6 7 5 5 7 10 11 11 11 11 11 11 11 11 10 10 10
-6 -9 -10 -7 -7 -8 -7 -5 -6 -7 -5 -4 -4 -4 -5 -5 -6 -6 -7 -7 -8 -8 -9 -9 -8 5 11 10 9 9 11 9 8 9 6 7 6 9 10 11 11 11 11 11 10 10 10 10 9
-3 -7 -8 -10 -11 -6 -5 -7 3 2 -4 -5 -3 -3 -4 -4 -4 -5 -6 -7 -7 -7 -8 -11 -11 -3 12 11 11 11 10 9 9 10 8 9 6 8 9 10 11 12 11 11 11 11 10 11 10
-6 -1 -1 -8 -11 -9 2 5 3 3 3 1 -1 -1 -1 -2 -4 -4 -4 -6 -6 -6 -6 -7 -11 -8 3 11 10 10 8 9 8 9 9 9 10 9 9 9 11 12 12 12 11 11 11 11 10
-10 -9 -1 -1 -9 -8 2 3 2 -0 1 1 1 1 -0 -1 0 1 1 1 0 2 1 2 2 -1 4 10 11 11 9 12 12 11 10 9 11 12 10 9 9 9 11 11 11 11 11 11 10
-2 -7 -0 1 -3 -4 3 4 4 2 2 1 0 0 3 4 4 4 4 4 5 7 10 12 13 11 13 14 12 10 7 8 8 7 8 10 11 11 11 11 9 8 8 9 10 10 11 11 10
-2 -6 -1 -2 -6 -3 2 7 5 3 4 3 1 4 4 4 3 3 3 2 2 4 6 9 13 15 14 13 12 11 9 9 9 8 9 10 12 12 11 12 11 9 9 9 9 11 10 11 9
-4 0 0 2 -1 -1 -3 7 4 4 3 6 5 4 3 2 2 2 2 2 2 2 2 4 7 10 11 14 13 11 10 10 9 9 9 9 10 10 11 12 11 11 11 9 10 11 11 9 9
-1 2 3 3 5 4 2 7 3 7 7 5 3 2 2 1 1 1 2 2 1 1 1 3 2 4 6 8 11 13 12 10 8 7 8 9 10 11 11 11 12 11 11 10 10 10 10 10 10
2 1 2 7 7 5 3 6 6 6 4 3 2 1 1 1 1 1 2 2 2 2 2 2 1 3 2 5 7 9 12 12 11 9 10 10 9 10 11 12 12 11 11 9 10 9 10 10 10
0 2 0 4 6 4 4 6 6 4 4 3 2 1 1 1 0 1 2 2 3 4 5 6 6 5 5 4 6 7 10 11 11 10 11 11 11 11 10 10 11 10 9 9 10 9 9 10 10
1 1 2 4 3 4 6 7 8 6 4 3 2 1 1 0 -0 0 1 2 3 4 6 7 8 9 9 6 4 7 11 12 11 9 11 11 11 11 11 10 10 7 9 9 9 10 10 10 10
2 4 5 4 6 7 8 8 6 4 3 2 1 1 0 -0 -0 -0 -0 1 2 3 4 5 7 8 10 10 10 9 12 11 10 10 10 12 12 11 11 10 7 9 9 9 9 9 9 10 10
3 4 4 5 6 7 8 5 3 3 2 1 1 1 -0 -1 -1 -1 0 0 1 1 2 3 5 6 8 10 12 12 12 12 11 10 10 12 12 10 10 10 6 9 10 8 10 10 9 10 10
Wind_Speed
6 7 6 3 3 5 3 9 5 12 8 6 10 3 5 5 5 5 28 22 21 20 21 19 16 13 11 9 8 10 13 15 15 15 13 13 11 11 11 11 10 11 13 13 13 11 9 8 6
5 7 5 2 4 3 6 6 16 12 14 29 10 1 2 1 14 23 32 26 21 19 19 19 16 13 10 6 5 8 11 15 16 16 15 14 12 12 12 12 12 13 13 13 12 11 10 7 6
6 9 3 4 5 7 7 8 10 3 15 28 8 2 5 10 14 34 30 26 24 21 19 17 16 13 8 5 4 7 11 15 17 17 16 15 14 13 13 13 16 15 16 15 15 13 12 8 6
7 6 4 3 10 9 9 9 2 10 22 21 12 4 2 15 32 29 29 24 27 23 20 17 15 12 8 5 6 8 11 14 17 18 17 16 14 14 14 16 15 14 13 14 15 16 13 12 10
8 3 2 5 10 8 7 19 14 10 9 22 21 5 4 19 25 33 30 28 29 25 22 18 15 12 8 5 5 9 11 15 18 19 18 17 15 15 16 15 15 14 13 13 15 16 14 12 13
4 2 2 9 20 6 7 28 15 9 21 27 9 7 10 20 28 32 29 28 28 26 23 19 16 13 9 5 5 9 12 15 18 19 18 17 16 16 15 15 17 19 18 8 12 10 14 10 13
3 2 7 16 5 5 8 23 12 14 12 15 18 7 9 32 33 33 29 26 26 24 22 20 17 15 11 6 6 8 11 14 17 19 19 18 17 17 16 17 17 16 14 12 12 15 11 13 14
9 3 7 8 10 10 12 26 25 17 22 34 28 8 9 38 41 37 31 27 23 23 20 20 19 16 12 8 7 9 11 14 16 18 18 18 18 17 18 17 17 16 15 15 18 13 12 15 19
7 3 17 12 8 7 17 13 32 15 24 28 6 8 21 42 42 38 35 28 24 22 21 21 21 18 14 11 9 10 12 14 16 17 17 18 20 20 18 17 17 16 17 18 13 13 9 13 18
7 6 35 7 10 8 18 26 32 14 19 21 10 9 23 45 44 42 39 33 28 25 24 22 22 20 18 14 12 11 13 15 16 17 18 18 20 20 19 18 17 16 17 18 16 12 14 16 19
8 23 13 19 20 23 20 22 29 16 21 19 20 21 33 46 45 43 38 32 28 25 23 23 23 22 21 18 14 13 15 17 18 18 19 19 21 22 21 21 21 20 19 20 19 15 17 19 18
9 27 21 29 25 23 19 27 27 18 36 25 33 17 35 49 47 42 38 34 29 24 21 24 25 25 23 20 17 14 15 17 19 19 20 21 23 23 23 24 24 23 22 22 21 18 16 17 18
15 21 27 31 26 34 30 29 27 36 50 26 36 30 37 46 45 40 35 34 31 29 25 23 26 27 26 24 20 18 17 17 18 20 21 22 22 23 23 23 24 23 23 23 22 20 18 18 20
10 19 25 30 37 34 22 24 25 49 35 24 30 29 34 42 43 40 39 36 36 31 28 24 27 26 26 26 24 21 19 17 18 19 21 22 23 23 23 24 25 25 24 23 22 22 20 20 21
15 14 21 26 26 13 22 21 27 42 30 29 35 32 25 40 38 40 37 35 30 30 27 31 28 28 28 27 27 25 21 20 19 18 21 22 23 24 23 24 25 24 23 24 23 24 23 22 22
12 10 14 19 15 18 12 25 29 38 25 33 32 36 28 21 29 34 30 28 29 28 30 32 34 34 31 28 28 28 25 23 19 18 21 23 23 23 24 25 25 24 25 25 24 25 24 24 25
13 15 19 26 14 12 13 18 29 32 28 30 30 33 36 33 25 29 31 28 28 32 33 30 36 41 36 32 30 30 28 26 22 21 21 21 24 25 26 25 23 23 26 28 25 24 24 24 24
19 11 16 16 22 14 18 19 27 25 23 25 29 28 23 31 35 32 31 30 30 35 36 35 32 40 43 38 36 33 30 28 25 25 24 22 23 27 28 27 25 24 26 27 26 26 26 25 23
16 20 18 19 23 18 16 22 16 7 17 23 23 22 27 35 37 33 37 37 35 37 38 40 37 38 48 45 41 39 37 34 32 29 27 24 22 26 29 29 28 28 29 30 29 28 27 29 27
20 22 22 20 24 16 13 11 11 9 8 9 12 18 19 22 35 40 40 43 41 38 39 42 44 39 46 48 43 40 39 35 31 29 28 26 25 25 27 29 31 33 33 33 32 32 31 30 30
22 21 19 17 22 17 8 13 13 14 10 15 18 21 24 21 4 3 7 9 12 9 19 35 41 41 46 48 46 42 38 32 30 30 32 31 29 27 27 27 29 31 34 37 38 38 36 35 33
19 12 14 21 19 11 3 7 5 5 8 10 13 5 16 21 26 26 20 17 18 19 15 18 27 34 40 43 45 44 40 38 35 32 32 34 32 30 29 27 27 27 29 33 36 38 39 38 36
21 15 21 18 15 6 6 3 6 6 3 6 2 25 25 18 23 23 22 18 18 15 16 15 13 20 26 36 41 41 40 37 33 31 32 33 34 34 33 31 29 28 28 29 32 36 37 39 40
5 3 13 12 6 9 12 7 5 2 3 11 14 22 27 25 19 17 16 15 16 15 11 7 8 10 9 25 32 37 38 38 34 30 29 32 32 37 35 33 31 30 30 30 31 35 37 38 42
5 2 3 2 2 4 7 8 8 5 8 16 14 25 26 26 28 23 20 17 17 15 14 12 8 9 11 14 32 36 39 39 34 33 29 29 28 34 37 35 35 33 31 31 30 35 36 39 44
2 9 4 4 3 3 7 6 1 17 21 26 26 26 29 32 32 30 25 21 19 18 18 19 19 16 19 18 24 40 41 43 41 35 31 28 26 28 32 33 34 29 30 28 33 35 34 33 39
4 6 6 3 4 3 4 5 14 17 20 19 22 31 31 29 32 33 27 24 23 20 19 21 23 24 21 22 24 35 42 43 42 36 33 28 24 25 27 28 28 28 28 27 31 32 29 33 40
10 1 2 2 1 2 4 3 4 7 16 18 16 23 29 31 36 38 32 27 24 22 20 19 18 20 21 13 24 25 37 38 37 36 32 31 26 23 24 25 26 27 26 24 23 26 29 36 30
4 2 3 1 3 1 3 4 9 12 10 16 13 21 24 24 32 36 35 30 26 22 22 23 18 15 9 6 12 15 27 30 30 31 31 33 30 24 24 24 23 25 25 22 24 26 22 28 33
3 3 1 3 0 3 3 3 5 10 10 19 19 17 19 26 27 31 35 38 38 31 26 27 22 20 11 3 8 18 17 26 30 32 33 36 33 27 23 23 23 25 23 20 22 23 22 22 32
Wind_Direction
263 222 208 203 70 71 253 253 284 282 310 277 269 210 144 103 159 199 151 157 162 156 155 153 152 145 148 145 155 170 174 175 173 167 161 158 153 149 151 154 159 151 156 160 161 159 154 153 160
238 195 200 151 113 127 248 236 248 251 266 321 276 257 36 37 130 144 154 155 158 158 156 155 150 146 142 138 147 167 174 174 174 171 165 163 159 155 155 157 159 153 155 162 152 156 151 151 154
198 189 190 156 171 195 225 219 223 248 290 311 280 295 143 159 157 153 151 149 159 162 158 155 154 152 150 157 167 172 173 174 174 175 169 167 164 161 161 160 168 169 163 158 155 153 146 138 147
173 189 252 195 223 245 214 244 56 321 300 303 304 272 100 164 155 155 154 158 167 163 157 159 156 161 165 169 173 171 174 174 174 176 173 171 169 169 170 179 178 172 169 163 155 150 145 139 145
179 172 230 242 247 256 253 271 273 276 277 276 286 254 147 166 164 160 159 166 169 164 162 162 160 167 175 175 165 169 174 175 174 176 175 173 174 175 183 184 180 173 168 162 162 161 164 166 163
187 198 235 243 239 240 266 264 274 252 272 282 252 190 165 183 169 165 166 169 173 166 164 166 167 174 172 168 166 172 175 178 176 177 178 178 178 186 187 188 180 168 161 192 184 184 163 164 176
177 152 224 251 313 269 252 271 253 265 273 271 266 186 178 171 178 169 172 172 172 171 170 173 177 178 173 166 172 177 177 181 182 182 185 184 183 192 193 192 192 190 200 209 213 174 204 198 182
205 184 260 237 246 271 264 275 271 287 286 297 278 196 173 173 170 172 177 176 174 176 181 183 186 185 184 180 180 182 182 184 188 188 187 188 186 195 197 194 193 194 192 184 194 170 181 208 188
214 247 250 227 246 262 282 286 283 304 297 296 237 204 187 171 173 173 174 177 181 186 193 195 195 192 190 191 190 187 186 187 191 191 189 187 186 192 196 198 198 190 185 185 186 183 198 200 190
189 233 246 210 212 243 250 261 278 301 309 295 292 194 178 174 176 176 176 183 190 197 200 205 203 201 195 195 195 192 191 191 194 194 194 192 189 192 194 192 195 194 187 186 182 190 184 188 193
210 237 235 248 240 260 266 272 284 275 278 269 275 176 174 178 180 184 186 194 197 205 211 213 213 209 203 198 197 194 193 193 196 197 198 195 192 191 192 190 191 196 196 192 189 188 180 174 194
243 248 251 258 257 261 259 274 267 276 265 280 291 254 187 180 186 189 192 195 200 209 222 226 224 218 211 203 201 199 197 198 199 198 199 201 200 196 197 199 198 199 202 202 202 195 191 202 203
232 251 262 267 262 255 262 259 266 268 271 272 279 294 196 188 192 198 202 201 208 213 218 229 229 223 219 209 205 204 200 203 202 202 202 205 207 204 202 204 203 207 208 211 213 210 211 212 211
279 284 269 269 256 254 259 267 263 261 271 266 267 269 219 197 196 199 202 203 210 213 219 227 231 225 225 221 212 211 206 199 202 203 207 207 210 212 208 204 206 209 211 218 223 221 224 224 220
297 279 278 264 262 271 254 263 250 263 264 272 260 258 229 224 216 207 208 209 214 217 225 228 233 223 221 225 218 216 213 206 205 204 207 209 209 213 212 209 209 214 211 217 224 227 231 228 228
291 287 273 270 272 261 229 255 255 259 266 258 260 249 244 230 226 220 217 218 216 224 224 230 230 230 222 224 224 220 217 214 213 211 209 207 213 213 215 214 213 215 213 217 219 224 226 232 234
251 264 275 287 275 264 252 254 260 260 256 259 246 253 250 258 239 222 225 224 225 227 229 227 232 229 226 222 223 223 219 219 217 220 219 212 214 218 218 219 220 217 216 219 221 228 234 234 236
268 250 264 266 282 262 273 265 265 262 243 249 254 255 256 249 252 245 236 233 232 236 237 239 234 234 224 218 217 218 218 220 221 225 223 218 215 218 221 222 221 220 220 222 227 232 238 237 230
265 266 258 264 278 287 253 263 268 306 253 241 245 257 250 254 258 256 254 251 252 249 242 238 236 233 222 216 212 213 217 217 219 224 222 218 217 218 222 224 222 223 225 226 229 234 237 231 227
270 266 271 266 263 274 271 270 266 268 259 238 256 260 260 279 263 259 258 249 242 246 247 242 237 234 228 219 218 216 219 220 225 225 224 223 221 219 222 226 227 226 225 228 234 233 236 228 222
258 259 256 268 276 270 284 287 281 272 257 257 257 264 271 291 252 163 192 205 209 237 217 219 223 228 226 220 216 215 218 218 219 227 229 228 224 223 224 228 228 230 233 234 236 239 236 228 222
265 255 301 271 259 257 203 282 274 249 259 266 257 263 109 98 106 99 106 108 102 101 109 201 221 227 222 217 216 216 217 215 226 233 234 228 226 226 232 231 229 235 234 235 236 239 235 232 228
257 246 231 254 248 230 205 253 272 262 249 289 196 91 82 79 79 80 66 63 62 74 92 102 172 200 226 228 222 221 222 227 230 231 234 232 229 232 234 233 238 235 237 240 240 235 232 229 232
316 289 267 282 231 243 238 187 273 244 335 102 83 81 71 59 60 70 56 38 41 40 41 85 127 168 211 219 232 232 231 230 235 238 240 241 227 230 233 236 235 237 240 243 240 235 235 234 235
206 238 285 335 250 231 202 190 237 351 90 92 85 65 60 50 48 43 36 21 9 1 357 357 319 247 221 236 226 237 234 236 242 251 246 239 233 228 227 229 229 238 240 242 241 237 242 241 239
234 190 186 261 167 154 130 216 35 88 59 57 52 58 51 42 41 40 33 21 6 353 338 321 310 295 269 239 235 230 238 237 238 243 243 242 245 240 231 229 232 243 247 243 243 242 243 246 221
260 198 223 25 316 61 194 128 80 87 77 54 41 50 41 35 36 36 33 23 13 3 349 337 319 301 288 265 235 227 232 235 235 244 241 243 244 242 238 235 239 244 240 242 240 244 235 235 218
237 325 53 4 24 258 213 69 34 42 80 66 37 49 49 42 38 37 33 27 23 15 4 354 336 318 303 273 227 238 230 236 235 240 238 239 234 238 233 237 240 237 230 241 238 231 235 226 236
331 18 43 136 131 70 334 72 20 60 55 83 67 41 50 46 44 42 38 33 30 24 17 10 354 343 319 279 220 241 232 236 229 237 239 238 231 239 235 241 244 226 230 235 225 225 225 229 225
254 338 38 111 285 183 82 26 340 77 74 70 65 51 56 53 49 47 43 38 35 29 24 23 11 3 9 308 194 211 215 223 231 238 238 236 227 232 233 241 237 222 227 232 225 224 218 218 221
Height
1503 1503 1505 1506 1517 1522 1525 1507 1486 1482 1481 1470 1465 1463 1459 1457 1461 1479 1469 1475 1480 1483 1486 1487 1488 1490 1492 1493 1493 1495 1498 1500 1503 1506 1509 1511 1513 1514 1516 1518 1521 1522 1523 1527 1527 1530 1530 1533 1535
1502 1503 1505 1505 1521 1530 1518 1488 1484 1477 1474 1471 1468 1463 1459 1462 1458 1460 1466 1473 1480 1483 1485 1487 1487 1489 1491 1492 1493 1495 1496 1499 1502 1505 1508 1510 1513 1515 1517 1518 1521 1523 1523 1526 1527 1529 1531 1533 1536
1502 1504 1504 1507 1518 1520 1509 1476 1471 1472 1474 1471 1468 1461 1458 1459 1460 1461 1465 1470 1476 1481 1484 1486 1486 1488 1490 1491 1492 1493 1495 1497 1500 1504 1506 1509 1512 1514 1516 1518 1520 1521 1523 1524 1527 1528 1530 1532 1536
1501 1505 1505 1507 1505 1492 1481 1464 1468 1469 1466 1466 1466 1461 1458 1456 1457 1462 1466 1469 1474 1478 1481 1485 1485 1487 1489 1490 1491 1492 1494 1496 1499 1503 1505 1508 1511 1513 1515 1517 1520 1523 1524 1526 1527 1528 1529 1530 1536
1500 1501 1507 1506 1495 1482 1472 1466 1469 1470 1472 1464 1467 1462 1459 1457 1461 1461 1463 1467 1470 1474 1478 1482 1484 1487 1488 1489 1490 1491 1493 1495 1498 1502 1504 1506 1509 1512 1513 1516 1519 1523 1525 1527 1528 1528 1528 1532 1535
1499 1499 1509 1497 1478 1475 1471 1468 1471 1469 1465 1463 1462 1458 1457 1459 1460 1463 1465 1468 1470 1471 1475 1479 1482 1485 1487 1487 1489 1490 1492 1494 1497 1501 1503 1505 1508 1510 1512 1515 1518 1522 1525 1527 1528 1529 1531 1532 1533
1498 1500 1492 1479 1483 1477 1471 1466 1466 1467 1463 1460 1461 1457 1454 1454 1457 1462 1466 1469 1471 1473 1474 1477 1481 1483 1485 1486 1488 1489 1490 1493 1496 1499 1502 1504 1506 1508 1510 1514 1516 1521 1523 1526 1528 1530 1530 1532 1533
1491 1492 1485 1471 1476 1477 1470 1463 1461 1466 1459 1456 1449 1451 1453 1451 1454 1457 1464 1468 1470 1472 1475 1477 1479 1481 1483 1485 1486 1488 1490 1492 1495 1498 1500 1502 1505 1507 1509 1512 1515 1518 1521 1525 1528 1530 1530 1531 1532
1491 1493 1469 1472 1477 1469 1467 1462 1456 1462 1457 1453 1447 1443 1443 1447 1452 1455 1460 1464 1468 1472 1474 1476 1478 1479 1481 1483 1485 1486 1489 1491 1494 1497 1499 1500 1502 1505 1508 1512 1514 1518 1521 1523 1526 1529 1529 1530 1532
1488 1489 1439 1463 1460 1461 1462 1458 1454 1461 1456 1451 1447 1443 1442 1445 1448 1451 1455 1458 1462 1467 1471 1474 1476 1478 1479 1481 1483 1485 1487 1489 1492 1495 1497 1499 1500 1503 1507 1510 1513 1517 1519 1522 1525 1528 1529 1530 1533
1474 1461 1453 1452 1457 1458 1455 1451 1453 1457 1452 1454 1452 1442 1441 1441 1445 1447 1451 1453 1455 1461 1467 1471 1474 1476 1477 1479 1481 1482 1485 1487 1489 1492 1495 1497 1499 1501 1504 1508 1511 1514 1517 1519 1522 1525 1527 1529 1532
1471 1446 1456 1448 1457 1455 1447 1453 1445 1457 1438 1451 1448 1455 1438 1439 1440 1443 1445 1450 1454 1458 1461 1465 1470 1473 1475 1477 1478 1480 1481 1484 1486 1489 1492 1494 1497 1499 1501 1504 1507 1510 1514 1517 1520 1523 1526 1528 1530
1460 1448 1449 1449 1454 1446 1448 1441 1447 1442 1431 1448 1446 1445 1441 1435 1436 1438 1440 1444 1448 1452 1457 1461 1464 1468 1471 1474 1476 1478 1479 1481 1484 1486 1489 1491 1494 1497 1499 1501 1504 1507 1510 1514 1518 1521 1524 1527 1528
1456 1455 1448 1446 1440 1442 1447 1437 1446 1422 1434 1439 1439 1439 1438 1433 1432 1434 1437 1439 1442 1448 1452 1457 1459 1463 1466 1469 1472 1474 1477 1478 1481 1482 1485 1488 1491 1494 1497 1499 1501 1504 1507 1511 1514 1518 1521 1524 1526
1459 1456 1446 1437 1431 1438 1443 1436 1428 1415 1431 1430 1430 1431 1433 1432 1430 1430 1432 1437 1439 1442 1448 1452 1455 1458 1461 1464 1468 1470 1473 1475 1477 1479 1482 1484 1488 1491 1493 1497 1498 1501 1505 1509 1512 1514 1518 1520 1522
1459 1455 1449 1428 1435 1431 1440 1427 1411 1417 1424 1420 1423 1422 1425 1427 1427 1427 1428 1432 1436 1439 1442 1447 1450 1452 1456 1460 1463 1466 1469 1472 1473 1476 1479 1482 1484 1488 1490 1493 1495 1498 1502 1505 1508 1511 1513 1515 1517
1451 1454 1451 1437 1436 1432 1431 1422 1401 1414 1417 1413 1413 1416 1415 1418 1423 1424 1426 1428 1432 1434 1437 1440 1445 1447 1451 1455 1458 1461 1465 1467 1470 1473 1475 1478 1481 1483 1486 1489 1493 1496 1498 1501 1504 1508 1509 1511 1513
1452 1452 1447 1442 1424 1431 1425 1418 1401 1408 1408 1405 1405 1408 1410 1411 1411 1417 1421 1424 1428 1430 1432 1434 1437 1441 1445 1450 1453 1457 1461 1464 1467 1469 1471 1474 1477 1479 1482 1485 1489 1492 1494 1497 1500 1503 1506 1507 1509
1447 1442 1441 1434 1425 1426 1419 1410 1408 1404 1401 1397 1397 1399 1403 1404 1407 1409 1413 1416 1419 1422 1424 1427 1429 1433 1438 1442 1447 1452 1454 1457 1461 1464 1468 1471 1473 1475 1478 1481 1484 1488 1489 1492 1495 1498 1501 1502 1505
1440 1436 1441 1428 1422 1425 1419 1411 1403 1401 1397 1394 1394 1395 1396 1399 1400 1401 1405 1408 1411 1411 1413 1418 1422 1425 1429 1436 1440 1445 1448 1452 1456 1460 1463 1466 1468 1471 1474 1476 1479 1482 1485 1488 1490 1492 1495 1498 1500
1432 1430 1430 1431 1421 1416 1414 1409 1400 1390 1389 1387 1390 1392 1395 1398 1400 1400 1402 1404 1405 1406 1408 1412 1416 1420 1423 1429 1434 1439 1445 1451 1453 1454 1456 1459 1463 1467 1470 1472 1474 1477 1480 1482 1484 1486 1488 1491 1494
1427 1424 1428 1428 1425 1422 1414 1418 1401 1390 1386 1383 1384 1390 1394 1400 1397 1399 1402 1403 1404 1406 1406 1408 1414 1419 1422 1428 1431 1433 1436 1438 1441 1445 1448 1453 1457 1461 1464 1467 1469 1472 1474 1475 1478 1480 1482 1485 1487
1411 1416 1422 1416 1415 1414 1411 1423 1400 1389 1386 1385 1384 1391 1395 1401 1399 1398 1399 1404 1405 1406 1407 1410 1410 1415 1420 1424 1429 1432 1435 1438 1440 1442 1445 1448 1452 1455 1458 1461 1464 1466 1468 1470 1471 1474 1475 1477 1480
1407 1411 1409 1409 1408 1416 1401 1415 1399 1386 1383 1387 1395 1397 1394 1396 1394 1394 1399 1401 1401 1404 1405 1407 1411 1414 1416 1419 1424 1427 1433 1434 1436 1438 1439 1442 1445 1448 1451 1454 1458 1461 1462 1463 1465 1467 1469 1470 1473
1408 1413 1426 1426 1420 1403 1395 1408 1390 1386 1385 1387 1401 1395 1397 1401 1396 1395 1393 1394 1396 1396 1400 1405 1408 1412 1415 1415 1417 1419 1424 1429 1431 1432 1433 1436 1439 1441 1444 1448 1451 1454 1456 1458 1460 1462 1463 1463 1463
1405 1404 1408 1402 1395 1396 1390 1398 1390 1398 1397 1398 1400 1402 1400 1399 1399 1397 1398 1398 1398 1397 1395 1396 1398 1404 1408 1412 1412 1413 1416 1420 1424 1426 1428 1430 1433 1435 1439 1442 1446 1449 1451 1452 1454 1454 1455 1456 1452
1396 1400 1394 1396 1400 1406 1395 1391 1397 1399 1402 1408 1403 1404 1404 1407 1404 1400 1400 1399 1397 1396 1396 1395 1393 1395 1398 1401 1405 1406 1407 1411 1416 1421 1422 1425 1428 1431 1433 1437 1441 1443 1445 1447 1448 1449 1449 1449 1452
1399 1395 1400 1411 1415 1419 1391 1391 1393 1403 1408 1411 1416 1416 1414 1414 1409 1404 1405 1403 1400 1399 1399 1397 1396 1394 1391 1391 1395 1399 1401 1405 1411 1414 1417 1418 1423 1427 1429 1432 1435 1437 1440 1442 1442 1443 1444 1447 1448
1400 1400 1396 1395 1400 1407 1400 1409 1419 1418 1420 1416 1423 1424 1423 1425 1418 1415 1412 1410 1405 1402 1399 1396 1394 1392 1390 1389 1388 1392 1396 1401 1406 1409 1411 1413 1418 1422 1424 1426 1428 1431 1435 1437 1439 1440 1441 1443 1444
1399 1398 1393 1403 1404 1406 1408 1427 1433 1429 1428 1423 1427 1433 1434 1427 1429 1427 1420 1413 1405 1404 1401 1398 1396 1393 1389 1387 1387 1390 1394 1398 1401 1404 1406 1408 1413 1416 1419 1421 1422 1427 1430 1433 1436 1437 1438 1439 1442